Harlan, IA

5:48 AM CST on December 14, 2019 (GMT -0600)
Harlan Municipal

Weather History for KHNR - October, 2019

Change the Weather History Date:

Tuesday, October 15, 2019

  Actual Average Record
Temperature  
Mean Temperature 50 °F -  
Max Temperature 55 °F 63 °F 86 °F (1953)
Min Temperature 42 °F 41 °F 26 °F (1952)
Degree Days  
Heating Degree Days 16    
Moisture  
Dew Point 38 °F    
Average Humidity 67    
Maximum Humidity 100    
Minimum Humidity 36    
Precipitation  
Precipitation 0.00 in - - ()
Sea Level Pressure  
Sea Level Pressure 29.96 in    
Wind  
Wind Speed 12 mph ()    
Max Wind Speed 33 mph    
Max Gust Speed 43 mph    
Visibility 10.0 miles    
Events      
Averages and records for this station are not official NWS values.
T = Trace of Precipitation, MM = Missing Value Source: Averaged Metar Reports

Daily Weather History Graph

Daily Weather History Graph

Search for Another Location

Airport or City:

Astronomy

Oct. 15, 2019 Rise Set
Actual Time 7:33 AM CDT 6:40 PM CDT
Civil Twilight 7:05 AM CDT 7:08 PM CDT
Nautical Twilight 6:33 AM CDT 7:40 PM CDT
Astronomical Twilight 6:00 AM CDT 8:12 PM CDT
Moon 7:59 PM CDT (10/15) 9:05 AM CDT (10/15)
Length of Visible Light 12h 03m
Length of Day
11h 07m
Full, 97% of the Moon is Illuminated
Oct 15
Full
Oct 21
Last Quarter
Oct 27
New
Nov 4
First Quarter
Nov 12
Full

Hourly Weather History & Observations

Time (CDT) Temp. Windchill Dew Point Humidity Pressure Visibility Wind Dir Wind Speed Gust Speed Precip Events Conditions
12:15 AM 53.6 °F - 46.4 °F 77% 29.79 in 10.0 mi South 6.9 mph - N/A   Clear
12:35 AM 53.6 °F - 46.4 °F 77% 29.78 in 10.0 mi South 5.8 mph - N/A   Clear
12:55 AM 51.8 °F - 46.4 °F 82% 29.78 in 10.0 mi South 4.6 mph - N/A   Clear
1:15 AM 51.8 °F - 46.4 °F 82% 29.77 in 10.0 mi South 5.8 mph - N/A   Clear
1:35 AM 51.8 °F - 46.4 °F 82% 29.77 in 10.0 mi South 5.8 mph - N/A   Clear
1:55 AM 53.6 °F - 48.2 °F 82% 29.77 in 10.0 mi SSW 5.8 mph - N/A   Clear
2:15 AM 50.0 °F - 46.4 °F 87% 29.77 in 10.0 mi Calm Calm - N/A   Clear
2:35 AM 51.8 °F - 46.4 °F 82% 29.77 in 10.0 mi SSW 5.8 mph - N/A   Clear
3:15 AM 50.0 °F - 48.2 °F 94% 29.78 in 10.0 mi SW 8.1 mph - N/A   Clear
3:35 AM 50.0 °F - 48.2 °F 94% 29.78 in 10.0 mi SSW 5.8 mph - N/A   Clear
3:55 AM 48.2 °F - 46.4 °F 93% 29.79 in 10.0 mi South 4.6 mph - N/A   Clear
4:15 AM 46.4 °F 45.2 °F 44.6 °F 93% 29.79 in 10.0 mi SSW 3.5 mph - N/A   Clear
4:35 AM 44.6 °F - 44.6 °F 100% 29.80 in 10.0 mi Calm Calm - N/A   Clear
4:55 AM 50.0 °F - 48.2 °F 94% 29.81 in 10.0 mi Variable 5.8 mph - N/A   Clear
5:15 AM 50.0 °F - 46.4 °F 87% 29.82 in 10.0 mi NW 11.5 mph 18.4 mph N/A   Clear
5:35 AM 50.0 °F - 42.8 °F 76% 29.83 in 10.0 mi NW 15.0 mph - N/A   Clear
5:55 AM 48.2 °F - 41.0 °F 76% 29.83 in 10.0 mi NNW 11.5 mph 19.6 mph N/A   Clear
6:15 AM 48.2 °F - 41.0 °F 76% 29.84 in 10.0 mi NNW 15.0 mph 21.9 mph N/A   Clear
6:35 AM 48.2 °F - 41.0 °F 76% 29.86 in 10.0 mi NW 15.0 mph - N/A   Clear
6:55 AM 48.2 °F - 41.0 °F 76% 29.86 in 10.0 mi NW 13.8 mph 23.0 mph N/A   Clear
7:15 AM 46.4 °F 39.8 °F 39.2 °F 76% 29.87 in 10.0 mi NW 16.1 mph 23.0 mph N/A   Clear
7:35 AM 46.4 °F 40.7 °F 39.2 °F 76% 29.88 in 10.0 mi NW 12.7 mph 19.6 mph N/A   Clear
7:55 AM 46.4 °F 39.8 °F 39.2 °F 76% 29.89 in 10.0 mi NW 16.1 mph - N/A   Clear
8:15 AM 46.4 °F 39.8 °F 39.2 °F 76% 29.91 in 10.0 mi NW 16.1 mph 24.2 mph N/A   Clear
8:35 AM 46.4 °F 39.8 °F 39.2 °F 76% 29.92 in 10.0 mi NW 16.1 mph 23.0 mph N/A   Clear
8:55 AM 46.4 °F 40.1 °F 39.2 °F 76% 29.94 in 10.0 mi NW 15.0 mph 21.9 mph N/A   Clear
9:15 AM 46.4 °F 38.7 °F 39.2 °F 76% 29.95 in 10.0 mi NW 20.7 mph 26.5 mph N/A   Clear
9:35 AM 48.2 °F - 39.2 °F 71% 29.95 in 10.0 mi NW 23.0 mph 29.9 mph N/A   Clear
9:55 AM 48.2 °F - 39.2 °F 71% 29.96 in 10.0 mi NW 21.9 mph 32.2 mph N/A   Clear
10:15 AM 50.0 °F - 41.0 °F 71% 29.96 in 10.0 mi NW 25.3 mph - N/A   Clear
10:35 AM 50.0 °F - 39.2 °F 66% 29.97 in 10.0 mi NW 28.8 mph - N/A   Clear
10:55 AM 50.0 °F - 39.2 °F 66% 29.98 in 10.0 mi NW 23.0 mph 32.2 mph N/A   Clear
11:15 AM 51.8 °F - 39.2 °F 62% 29.98 in 10.0 mi NW 21.9 mph 34.5 mph N/A   Partly Cloudy
11:35 AM 51.8 °F - 37.4 °F 58% 29.98 in 10.0 mi NW 18.4 mph 27.6 mph N/A   Clear
11:55 AM 53.6 °F - 35.6 °F 51% 29.99 in 10.0 mi NW 23.0 mph 31.1 mph N/A   Clear
12:15 PM 53.6 °F - 33.8 °F 47% 29.99 in 10.0 mi NNW 20.7 mph 35.7 mph N/A   Clear
12:35 PM 55.4 °F - 30.2 °F 38% 29.98 in 10.0 mi NW 24.2 mph 33.4 mph N/A   Clear
12:55 PM 55.4 °F - 28.4 °F 36% 29.99 in 10.0 mi NW 33.4 mph 40.3 mph N/A   Clear
1:15 PM 53.6 °F - 28.4 °F 38% 29.99 in 10.0 mi NNW 29.9 mph 38.0 mph N/A   Clear
1:35 PM 53.6 °F - 30.2 °F 41% 30.00 in 10.0 mi NW 25.3 mph 42.6 mph N/A   Clear
1:55 PM 53.6 °F - 30.2 °F 41% 30.00 in 10.0 mi NW 21.9 mph 36.8 mph N/A   Clear
2:35 PM 55.4 °F - 30.2 °F 38% 29.99 in 10.0 mi NW 19.6 mph 38.0 mph N/A   Clear
2:55 PM 55.4 °F - 30.2 °F 38% 30.00 in 10.0 mi NW 23.0 mph 34.5 mph N/A   Partly Cloudy
3:15 PM 55.4 °F - 30.2 °F 38% 30.00 in 10.0 mi NW 21.9 mph 34.5 mph N/A   Scattered Clouds
3:35 PM 55.4 °F - 30.2 °F 38% 30.00 in 10.0 mi NNW 21.9 mph 31.1 mph N/A   Mostly Cloudy
3:55 PM 51.8 °F - 32.0 °F 47% 30.01 in 10.0 mi NW 25.3 mph 31.1 mph N/A   Overcast
4:15 PM 51.8 °F - 32.0 °F 47% 30.02 in 10.0 mi NW 19.6 mph 32.2 mph N/A   Overcast
4:35 PM 50.0 °F - 32.0 °F 50% 30.03 in 10.0 mi NW 19.6 mph 26.5 mph N/A   Overcast
4:55 PM 50.0 °F - 32.0 °F 50% 30.04 in 10.0 mi NW 20.7 mph 31.1 mph N/A   Overcast
5:15 PM 48.2 °F - 30.2 °F 50% 30.05 in 10.0 mi NNW 20.7 mph 32.2 mph N/A   Overcast
5:35 PM 48.2 °F - 30.2 °F 50% 30.06 in 10.0 mi NW 21.9 mph 32.2 mph N/A   Overcast
5:55 PM 48.2 °F - 32.0 °F 54% 30.06 in 10.0 mi NW 16.1 mph 24.2 mph N/A   Mostly Cloudy
6:15 PM 46.4 °F 38.7 °F 30.2 °F 53% 30.07 in 10.0 mi NNW 20.7 mph 26.5 mph N/A   Mostly Cloudy
6:35 PM 46.4 °F 39.5 °F 32.0 °F 57% 30.08 in 10.0 mi NW 17.3 mph 24.2 mph N/A   Overcast
6:55 PM 46.4 °F 39.5 °F 32.0 °F 57% 30.08 in 10.0 mi NW 17.3 mph - N/A   Overcast
7:15 PM 46.4 °F 41.5 °F 33.8 °F 62% 30.09 in 10.0 mi NW 10.4 mph 21.9 mph N/A   Overcast
7:35 PM 46.4 °F 39.5 °F 33.8 °F 62% 30.09 in 10.0 mi NW 17.3 mph - N/A   Overcast
7:55 PM 46.4 °F 39.5 °F 33.8 °F 62% 30.10 in 10.0 mi NW 17.3 mph 24.2 mph N/A   Overcast
8:15 PM 46.4 °F 40.7 °F 33.8 °F 62% 30.10 in 10.0 mi NW 12.7 mph 19.6 mph N/A   Overcast
8:35 PM 46.4 °F 41.9 °F 33.8 °F 62% 30.10 in 10.0 mi NNW 9.2 mph 18.4 mph N/A   Overcast
8:55 PM 44.6 °F 38.8 °F 33.8 °F 66% 30.10 in 10.0 mi NNW 11.5 mph 19.6 mph N/A   Overcast
9:15 PM 44.6 °F 38.4 °F 35.6 °F 71% 30.11 in 10.0 mi NNW 12.7 mph 20.7 mph N/A   Overcast
9:35 PM 44.6 °F 38.4 °F 35.6 °F 71% 30.12 in 10.0 mi NNW 12.7 mph 19.6 mph N/A   Overcast
9:55 PM 44.6 °F 38.8 °F 35.6 °F 71% 30.13 in 10.0 mi NW 11.5 mph 17.3 mph N/A   Overcast
10:15 PM 44.6 °F 38.1 °F 35.6 °F 71% 30.14 in 10.0 mi NW 13.8 mph 21.9 mph N/A   Overcast
10:35 PM 44.6 °F 37.8 °F 35.6 °F 71% 30.15 in 10.0 mi NW 15.0 mph 20.7 mph N/A   Overcast
10:55 PM 44.6 °F 38.1 °F 35.6 °F 71% 30.15 in 10.0 mi NNW 13.8 mph 20.7 mph N/A   Overcast
11:15 PM 44.6 °F 36.9 °F 35.6 °F 71% 30.15 in 10.0 mi NNW 18.4 mph - N/A   Overcast
11:35 PM 44.6 °F 39.7 °F 35.6 °F 71% 30.15 in 10.0 mi NNW 9.2 mph 17.3 mph N/A   Overcast
11:55 PM 42.8 °F 37.0 °F 35.6 °F 76% 30.16 in 10.0 mi NW 10.4 mph 18.4 mph N/A   Overcast